Regional Weather Roundup
Issued by NWS Sioux Falls, SD

Home | Current Version | Previous Version | Text Only | Print | Product List | Glossary Off
Versions: 1 2 3 4 5 6 7 8 9 10 11 12 13 14 15 16 17 18 19 20 21 22 23 24 25 26 27 28 29 30 31 32 33 34 35 36 37 38 39 40 41 42 43 44 45 46 47 48 49 50

000
ASUS43 KFSD 232102
RWRFSD

WEATHER ROUNDUP FOR SE SOUTH DAKOTA/SW MINNESOTA/NW IOWA
NATIONAL WEATHER SERVICE SIOUX FALLS SD
400 PM CDT WED JUL 23 2014

NOTE: "FAIR" INDICATES FEW OR NO CLOUDS BELOW 12,000 FEET WITH NO
SIGNIFICANT WEATHER AND OR OBSTRUCTIONS TO VISIBILITY.


SDZ038>040-050-052>070-232200-
SOUTHEAST SOUTH DAKOTA

CITY           SKY/WX    TMP DP  RH WIND       PRES   REMARKS
CHAMBERLAIN    MOSUNNY   85  52  31 SE12G18   30.19F
HURON          SUNNY     81  55  40 E10       30.21F
MADISON        FAIR      75  57  53 E6        30.25F
MITCHELL       SUNNY     83  58  42 VRB6      30.21F
SIOUX FALLS    MOSUNNY   80  57  45 NE7       30.23F
WINNER         FAIR      88  52  29 SE12      30.20F
YANKTON        SUNNY     81  59  47 E7        30.21F
$$

MNZ071-072-080-081-089-090-097-098-232200-
SOUTHWEST MINNESOTA

CITY           SKY/WX    TMP DP  RH WIND       PRES   REMARKS
FAIRMONT       MOSUNNY   81  55  41 NE6       30.23F
JACKSON        MOSUNNY   79  54  41 NE5       30.25F
LUVERNE        SUNNY     81  54  39 NE7       30.24F
MARSHALL       SUNNY     79  52  38 NE7       30.24F
MONTEVIDEO     MOSUNNY   84  54  34 NE5       30.25F
PIPESTONE      SUNNY     79  50  36 NE5       30.26F
REDWOOD FALLS  SUNNY     82  52  35 N8        30.23F
TRACY          SUNNY     79  52  38 CALM      30.25F
WINDOM         MOSUNNY   81  52  36 NE5       30.25F
WORTHINGTON    MOSUNNY   79  55  44 NE8       30.26F
$$

IAZ001>003-012>014-020>022-031-032-NEZ013-014-SDZ071-232200-
NORTHWEST IOWA

CITY           SKY/WX    TMP DP  RH WIND       PRES   REMARKS
CHEROKEE       SUNNY     80  56  43 E6        30.22F
DENISON        SUNNY     79  57  47 VRB7      30.19F
ESTHERVILLE    MOSUNNY   79  57  46 NW6       30.23F
LE MARS        SUNNY     79  57  47 NE7G16    30.22F
ORANGE CITY    SUNNY     81  55  41 NE6       30.23F
SHELDON        PTSUNNY   77  59  53 NE7G13    30.22F
SIOUX CITY     SUNNY     83  59  44 E8        30.20F
SPENCER        PTSUNNY   81  57  43 N8        30.23F
STORM LAKE     SUNNY     79  59  50 VRB5      30.23F
$$

ABBREVIATIONS USED IN REMARKS
   TC - TEMPERATURE IN CELSIUS
  WCI - WIND CHILL INDEX
   HX - HEAT INDEX
  VSB - VISIBILITY



USA.gov is the U.S. government's official web portal to all federal, state and local government web resources and services.